GW3624 Weather Reports


time (UTC)temp
C
wind
direction
speed
KPH
gust
KPH
rain 1hr
cm
rain 24hr
cm
rain mn
cm
humidity
%
barometer
mb
20260906004004 30 358 0.0 1.6 0.00 0.00 0.00 75 1013.0
20260906003504 30 358 0.0 0.0 0.00 0.00 0.00 74 1013.1
20260906003008 30 358 0.0 0.0 0.00 0.00 0.00 73 1013.1
20260906002506 30 358 0.0 0.0 0.00 0.00 0.00 70 1013.2
20260906002007 30 358 0.0 3.2 0.00 0.00 0.00 69 1013.1
20260906001512 30 358 0.0 3.2 0.00 0.00 0.00 68 1013.3
20260906001008 30 358 0.0 3.2 0.00 0.00 0.00 68 1013.5
20260906000512 30 358 1.6 4.8 0.00 0.00 0.00 68 1013.5
20260906000021 31 358 1.6 4.8 0.00 0.00 0.00 66 1013.5
20260905235515 31 358 0.0 3.2 0.00 0.00 0.00 69 1013.5
20260905235015 31 358 1.6 3.2 0.00 0.00 0.00 67 1013.6
20260905234505 31 347 1.6 4.8 0.00 0.00 0.00 64 1013.6
20260905234003 32 343 1.6 4.8 0.00 0.00 0.00 63 1013.6
20260905233504 32 345 3.2 4.8 0.00 0.00 0.00 62 1013.6
20260905233021 32 350 0.0 3.2 0.00 0.00 0.00 61 1013.5
20260905232508 33 345 1.6 3.2 0.00 0.00 0.00 60 1013.5
20260905232008 33 345 1.6 3.2 0.00 0.00 0.00 60 1013.4
20260905231514 33 360 0.0 3.2 0.00 0.00 0.00 60 1013.5
20260905231009 33 360 0.0 3.2 0.00 0.00 0.00 60 1013.3
20260905230507 33 360 1.6 3.2 0.00 0.00 0.00 59 1013.3
20260905230021 33 360 0.0 3.2 0.00 0.00 0.00 59 1013.2
20260905225510 33 360 0.0 3.2 0.00 0.00 0.00 57 1013.2
20260905225012 33 360 0.0 3.2 0.00 0.00 0.00 56 1013.2
20260905224525 33 360 0.0 4.8 0.00 0.00 0.00 56 1013.3
20260905224013 33 360 3.2 4.8 0.00 0.00 0.00 54 1013.2
20260905223518 34 352 1.6 4.8 0.00 0.00 0.00 54 1013.2
20260905223006 34 6 3.2 8.0 0.00 0.00 0.00 52 1013.3
20260905222503 34 1 1.6 9.7 0.00 0.00 0.00 52 1013.2
20260905222006 34 325 6.4 9.7 0.00 0.00 0.00 50 1013.3
20260905221507 34 334 4.8 9.7 0.00 0.00 0.00 54 1013.3
20260905221007 34 326 4.8 9.7 0.00 0.00 0.00 51 1013.2
20260905220510 34 330 3.2 12.9 0.00 0.00 0.00 52 1013.2
20260905220015 34 297 4.8 12.9 0.00 0.00 0.00 51 1013.2
20260905215508 34 307 8.0 11.3 0.00 0.00 0.00 51 1013.2
20260905215014 34 296 6.4 14.5 0.00 0.00 0.00 53 1013.3
20260905214520 34 341 9.7 14.5 0.00 0.00 0.00 51 1013.3
20260905214013 34 295 8.0 16.1 0.00 0.00 0.00 50 1013.3
20260905213512 35 314 8.0 16.1 0.00 0.00 0.00 50 1013.3
20260905213025 35 321 9.7 14.5 0.00 0.00 0.00 50 1013.3
20260905212519 35 338 6.4 14.5 0.00 0.00 0.00 50 1013.2
20260905212017 35 15 3.2 11.3 0.00 0.00 0.00 50 1013.2
20260905211507 35 273 4.8 11.3 0.00 0.00 0.00 50 1013.3
20260905211005 35 300 6.4 11.3 0.00 0.00 0.00 50 1013.4
20260905210506 35 352 4.8 17.7 0.00 0.00 0.00 49 1013.4
20260905210010 35 273 8.0 17.7 0.00 0.00 0.00 48 1013.4
20260905205507 35 274 8.0 14.5 0.00 0.00 0.00 49 1013.4
20260905205008 35 231 9.7 12.9 0.00 0.00 0.00 50 1013.5
20260905204517 35 307 6.4 14.5 0.00 0.00 0.00 50 1013.5
20260905204013 35 328 6.4 20.9 0.00 0.00 0.00 50 1013.5
20260905203514 35 304 14.5 20.9 0.00 0.00 0.00 51 1013.5
20260905203025 35 253 9.7 16.1 0.00 0.00 0.00 50 1013.5
20260905202514 35 326 3.2 8.0 0.00 0.00 0.00 51 1013.6
20260905202017 35 359 3.2 14.5 0.00 0.00 0.00 51 1013.7
20260905201530 35 294 3.2 14.5 0.00 0.00 0.00 52 1013.8
20260905201014 35 293 8.0 14.5 0.00 0.00 0.00 51 1013.9
20260905200520 35 231 4.8 12.9 0.00 0.00 0.00 50 1014.0
20260905200006 35 255 4.8 11.3 0.00 0.00 0.00 51 1014.2
20260905195508 35 227 4.8 14.5 0.00 0.00 0.00 51 1014.3
20260905195006 35 148 6.4 14.5 0.00 0.00 0.00 52 1014.3
20260905194513 34 255 4.8 12.9 0.00 0.00 0.00 52 1014.3
20260905194010 34 245 4.8 14.5 0.00 0.00 0.00 52 1014.5
20260905193510 34 248 9.7 14.5 0.00 0.00 0.00 52 1014.5
20260905193020 34 263 6.4 12.9 0.00 0.00 0.00 54 1014.6
20260905192512 34 302 4.8 16.1 0.00 0.00 0.00 53 1014.7
20260905192013 34 285 11.3 16.1 0.00 0.00 0.00 52 1014.8
20260905191526 34 255 6.4 14.5 0.00 0.00 0.00 53 1014.7
20260905191018 34 241 8.0 11.3 0.00 0.00 0.00 53 1014.8
20260905190515 34 288 3.2 8.0 0.00 0.00 0.00 54 1014.8
20260905190029 34 86 3.2 8.0 0.00 0.00 0.00 52 1014.9
20260905185515 33 250 4.8 12.9 0.00 0.00 0.00 54 1014.9
20260905185006 33 309 1.6 12.9 0.00 0.00 0.00 55 1015.0
20260905184519 33 301 4.8 11.3 0.00 0.00 0.00 54 1015.0
20260905184006 33 332 6.4 14.5 0.00 0.00 0.00 55 1015.0
20260905183509 33 295 6.4 14.5 0.00 0.00 0.00 55 1015.1
20260905183016 33 317 9.7 14.5 0.00 0.00 0.00 54 1015.3
20260905182510 33 211 8.0 9.7 0.00 0.00 0.00 55 1015.4
20260905182012 33 328 4.8 9.7 0.00 0.00 0.00 54 1015.5
20260905181524 33 349 6.4 12.9 0.00 0.00 0.00 55 1015.6
20260905181013 33 334 6.4 12.9 0.00 0.00 0.00 54 1015.7
20260905180514 33 321 4.8 8.0 0.00 0.00 0.00 54 1015.7
20260905180037 32 274 1.6 8.0 0.00 0.00 0.00 57 1015.7
20260905175521 32 283 3.2 6.4 0.00 0.00 0.00 57 1015.8
20260905175015 32 312 1.6 8.0 0.00 0.00 0.00 57 1015.9
20260905174531 32 117 3.2 8.0 0.00 0.00 0.00 56 1016.0
20260905174018 32 37 3.2 6.4 0.00 0.00 0.00 57 1015.9
20260905173509 32 99 3.2 6.4 0.00 0.00 0.00 57 1016.0
20260905173017 32 300 1.6 8.0 0.00 0.00 0.00 58 1016.1
20260905172507 32 292 4.8 12.9 0.00 0.00 0.00 58 1016.1
20260905172011 32 359 3.2 16.1 0.00 0.00 0.00 58 1016.2
20260905171507 32 359 9.7 16.1 0.00 0.00 0.00 58 1016.2
20260905171007 32 293 3.2 11.3 0.00 0.00 0.00 59 1016.2
20260905170506 31 56 1.6 6.4 0.00 0.00 0.00 57 1016.3
20260905170009 31 252 1.6 8.0 0.00 0.00 0.00 60 1016.3
20260905165508 31 48 3.2 8.0 0.00 0.00 0.00 59 1016.3
20260905165010 31 103 1.6 6.4 0.00 0.00 0.00 61 1016.3
20260905164505 31 287 3.2 6.4 0.00 0.00 0.00 60 1016.3
20260905164004 31 27 4.8 6.4 0.00 0.00 0.00 60 1016.4
20260905163509 31 302 3.2 8.0 0.00 0.00 0.00 60 1016.3
20260905163010 31 319 3.2 8.0 0.00 0.00 0.00 60 1016.3
20260905162507 30 23 3.2 6.4 0.00 0.00 0.00 61 1016.3
20260905162006 30 354 3.2 9.7 0.00 0.00 0.00 62 1016.2
20260905161509 30 306 3.2 9.7 0.00 0.00 0.00 61 1016.3
20260905161007 30 358 4.8 9.7 0.00 0.00 0.00 62 1016.3
20260905160506 30 14 3.2 9.7 0.00 0.00 0.00 61 1016.4
20260905160010 30 58 4.8 11.3 0.00 0.00 0.00 61 1016.5
20260905155510 30 40 3.2 11.3 0.00 0.00 0.00 64 1016.5
20260905155010 29 21 4.8 9.7 0.00 0.00 0.00 63 1016.6
20260905154511 29 51 3.2 14.5 0.00 0.00 0.00 65 1016.7
20260905154007 28 39 6.4 14.5 0.00 0.00 0.00 64 1016.7
20260905153503 29 94 3.2 11.3 0.00 0.00 0.00 63 1016.8
20260905153011 29 5 3.2 8.0 0.00 0.00 0.00 64 1016.8
20260905152507 28 1 1.6 11.3 0.00 0.00 0.00 66 1016.9
20260905152008 28 18 4.8 16.1 0.00 0.00 0.00 65 1017.0
20260905151515 28 314 6.4 16.1 0.00 0.00 0.00 64 1017.1
20260905151014 28 49 4.8 12.9 0.00 0.00 0.00 65 1017.1
20260905150511 28 22 6.4 12.9 0.00 0.00 0.00 66 1017.0
20260905150020 28 359 4.8 14.5 0.00 0.00 0.00 65 1017.0
20260905145511 28 21 6.4 16.1 0.00 0.00 0.00 67 1017.0
20260905145009 28 16 4.8 20.9 0.00 0.00 0.00 69 1017.0
20260905144516 27 311 6.4 20.9 0.00 0.00 0.00 70 1017.0
20260905144009 27 323 9.7 22.5 0.00 0.00 0.00 69 1017.0
20260905143511 27 296 11.3 22.5 0.00 0.00 0.00 70 1017.1
20260905143024 27 359 11.3 24.1 0.00 0.00 0.00 73 1017.2
20260905142511 27 13 11.3 24.1 0.00 0.00 0.00 73 1017.3
20260905142007 27 327 9.7 22.5 0.00 0.00 0.00 74 1017.2
20260905141512 27 342 11.3 20.9 0.00 0.00 0.00 75 1017.0
20260905141009 27 349 8.0 20.9 0.00 0.00 0.00 75 1017.0
20260905140510 27 333 6.4 20.9 0.00 0.00 0.00 74 1017.0
20260905140016 27 351 9.7 20.9 0.00 0.00 0.00 75 1016.8
20260905135512 27 8 11.3 16.1 0.00 0.00 0.00 77 1017.0
20260905135013 27 321 9.7 12.9 0.00 0.00 0.00 79 1017.0
20260905134527 27 332 6.4 9.7 0.00 0.00 0.00 81 1016.7
20260905134011 26 37 3.2 9.7 0.00 0.00 0.00 84 1016.6
20260905133510 26 4 4.8 9.7 0.00 0.00 0.00 86 1016.6
20260905133014 26 321 3.2 9.7 0.00 0.00 0.00 88 1016.6
20260905132512 25 349 4.8 9.7 0.00 0.00 0.00 90 1016.7
20260905132014 25 359 4.8 6.4 0.00 0.00 0.00 92 1016.7
20260905131518 25 5 0.0 3.2 0.00 0.00 0.00 95 1016.8
20260905131012 25 1 1.6 3.2 0.00 0.00 0.00 95 1016.8
20260905130507 24 354 0.0 3.2 0.00 0.00 0.00 96 1016.7
20260905130017 24 354 0.0 3.2 0.00 0.00 0.00 96 1016.7
20260905125509 23 354 0.0 3.2 0.00 0.00 0.00 96 1016.8
20260905125012 23 354 0.0 4.8 0.00 0.00 0.00 96 1016.8
20260905124522 23 354 0.0 4.8 0.00 0.00 0.00 96 1016.8
20260905124013 23 354 3.2 4.8 0.00 0.00 0.00 96 1016.9
20260905123516 22 359 0.0 0.0 0.00 0.00 0.00 96 1016.5
20260905123050 22 359 0.0 0.0 0.00 0.00 0.00 96 1016.5
20260905122511 22 359 0.0 0.0 0.00 0.00 0.00 96 1016.5
20260905122014 22 359 0.0 0.0 0.00 0.00 0.00 96 1016.5
20260905121519 22 359 0.0 0.0 0.00 0.00 0.00 96 1016.4
20260905121012 22 359 0.0 0.0 0.00 0.00 0.00 96 1016.4
20260905120511 22 359 0.0 0.0 0.00 0.00 0.00 96 1016.3
20260905120027 22 359 0.0 0.0 0.00 0.00 0.00 95 1016.3
20260905115511 22 359 0.0 0.0 0.00 0.00 0.00 95 1016.3
20260905115008 22 359 0.0 1.6 0.00 0.00 0.00 95 1016.2
20260905114521 22 359 0.0 3.2 0.00 0.00 0.00 95 1016.2
20260905114011 22 359 0.0 3.2 0.00 0.00 0.00 95 1016.2
20260905113512 22 359 0.0 0.0 0.00 0.00 0.00 95 1016.2
20260905113027 22 359 0.0 0.0 0.00 0.00 0.00 95 1016.1
20260905112514 22 359 0.0 0.0 0.00 0.00 0.00 95 1016.1
20260905112011 22 359 0.0 3.2 0.00 0.00 0.00 95 1016.0
20260905111504 22 359 0.0 3.2 0.00 0.00 0.00 95 1016.0
20260905111004 22 359 0.0 0.0 0.00 0.00 0.00 95 1015.8
20260905110506 22 359 0.0 3.2 0.00 0.00 0.00 95 1015.8
20260905110009 22 359 0.0 3.2 0.00 0.00 0.00 95 1015.7
20260905105509 22 359 0.0 3.2 0.00 0.00 0.00 95 1015.7
20260905105007 22 359 0.0 3.2 0.00 0.00 0.00 95 1015.7
20260905104511 22 359 0.0 3.2 0.00 0.00 0.00 95 1015.5
20260905104010 22 359 0.0 3.2 0.00 0.00 0.00 95 1015.4
20260905103514 22 359 0.0 3.2 0.00 0.00 0.00 95 1015.5
20260905103023 22 359 0.0 3.2 0.00 0.00 0.00 94 1015.6
20260905102504 22 359 0.0 3.2 0.00 0.00 0.00 94 1015.4
20260905102003 22 359 0.0 3.2 0.00 0.00 0.00 95 1015.6
20260905101504 22 359 0.0 0.0 0.00 0.00 0.00 95 1015.5
20260905101003 22 359 0.0 3.2 0.00 0.00 0.00 95 1015.4
20260905100503 22 359 0.0 3.2 0.00 0.00 0.00 95 1015.4
20260905100008 22 359 0.0 0.0 0.00 0.00 0.00 95 1015.3
20260905095503 22 359 0.0 3.2 0.00 0.00 0.00 95 1015.3
20260905095006 22 359 0.0 3.2 0.00 0.00 0.00 95 1015.2
20260905094511 22 359 0.0 1.6 0.00 0.00 0.00 95 1015.2
20260905094007 22 359 1.6 1.6 0.00 0.00 0.00 95 1015.1
20260905093512 22 359 0.0 0.0 0.00 0.00 0.00 94 1015.1
20260905093015 22 359 0.0 0.0 0.00 0.00 0.00 94 1015.0
20260905092512 22 359 0.0 0.0 0.00 0.00 0.00 94 1015.0
20260905092010 22 359 0.0 0.0 0.00 0.00 0.00 95 1015.0
20260905091523 22 359 0.0 3.2 0.00 0.00 0.00 94 1015.0
20260905091005 22 359 0.0 3.2 0.00 0.00 0.00 95 1015.0
20260905090502 22 359 0.0 3.2 0.00 0.00 0.00 94 1015.0
20260905090004 22 359 0.0 1.6 0.00 0.00 0.00 94 1015.0
20260905085506 22 359 0.0 3.2 0.00 0.00 0.00 94 1015.0
20260905085009 22 359 0.0 3.2 0.00 0.00 0.00 94 1015.0
20260905084507 22 359 0.0 3.2 0.00 0.00 0.00 94 1015.0
20260905084007 22 359 0.0 3.2 0.00 0.00 0.00 94 1015.0
20260905083508 22 359 0.0 3.2 0.00 0.00 0.00 94 1015.0
20260905083016 22 359 0.0 0.0 0.00 0.00 0.00 94 1015.0
20260905082508 22 359 0.0 3.2 0.00 0.00 0.00 94 1015.0
20260905082010 22 359 0.0 3.2 0.00 0.00 0.00 94 1015.1
20260905081520 22 358 0.0 0.0 0.00 0.00 0.00 94 1015.1
20260905081012 22 358 0.0 3.2 0.00 0.00 0.00 94 1015.1
20260905080511 22 358 0.0 3.2 0.00 0.00 0.00 94 1015.1
20260905080036 22 358 1.6 3.2 0.00 0.00 0.00 94 1015.1
20260905075504 23 359 1.6 3.2 0.00 0.00 0.00 94 1015.1
20260905075004 23 359 0.0 3.2 0.00 0.00 0.00 94 1015.2
20260905074506 23 359 0.0 3.2 0.00 0.00 0.00 94 1015.2
20260905074009 23 359 0.0 0.0 0.00 0.00 0.00 94 1015.2
20260905073507 23 359 0.0 3.2 0.00 0.00 0.00 94 1015.3
20260905073020 23 359 0.0 3.2 0.00 0.00 0.00 94 1015.4
20260905072508 23 359 0.0 3.2 0.00 0.00 0.00 94 1015.4
20260905072009 23 359 0.0 1.6 0.00 0.00 0.00 93 1015.4
20260905071520 23 359 0.0 0.0 0.00 0.00 0.00 93 1015.5
20260905071012 23 359 0.0 0.0 0.00 0.00 0.00 93 1015.4
20260905070513 23 359 0.0 0.0 0.00 0.00 0.00 94 1015.5
20260905070031 23 359 0.0 3.2 0.00 0.00 0.00 94 1015.6
20260905065512 23 359 0.0 3.2 0.00 0.00 0.00 94 1015.7
20260905065017 23 359 1.6 3.2 0.00 0.00 0.00 93 1015.7
20260905064529 23 359 0.0 3.2 0.00 0.00 0.00 93 1015.8
20260905064003 23 359 0.0 1.6 0.00 0.00 0.00 93 1015.8
20260905063509 23 359 0.0 3.2 0.00 0.00 0.00 93 1015.9
20260905063011 23 359 0.0 3.2 0.00 0.00 0.00 93 1015.9
20260905062507 23 359 0.0 3.2 0.00 0.00 0.00 93 1016.0
20260905062010 23 359 0.0 3.2 0.00 0.00 0.00 93 1016.0
20260905061520 23 359 0.0 0.0 0.00 0.00 0.00 93 1016.0
20260905061012 23 359 0.0 0.0 0.00 0.00 0.00 93 1016.1
20260905060510 23 359 0.0 0.0 0.00 0.00 0.00 93 1016.2
20260905060039 23 359 0.0 1.6 0.00 0.00 0.00 93 1016.2
20260905055514 23 359 0.0 1.6 0.00 0.00 0.00 93 1016.2
20260905055016 23 359 1.6 3.2 0.00 0.00 0.00 93 1016.3
20260905054536 23 359 0.0 3.2 0.00 0.00 0.00 92 1016.3
20260905054018 23 359 0.0 3.2 0.00 0.00 0.00 92 1016.3
20260905053514 24 359 0.0 0.0 0.00 0.00 0.00 92 1016.3
20260905053030 24 359 0.0 0.0 0.00 0.00 0.00 92 1016.3
20260905052507 24 359 0.0 3.2 0.00 0.00 0.00 92 1016.3
20260905052011 24 359 0.0 3.2 0.00 0.00 0.00 92 1016.4
20260905051514 24 359 0.0 3.2 0.00 0.00 0.00 92 1016.3
20260905051012 24 359 1.6 3.2 0.00 0.00 0.00 92 1016.4
20260905050512 24 359 0.0 3.2 0.00 0.00 0.00 92 1016.3
20260905050021 24 359 0.0 1.6 0.00 0.00 0.00 91 1016.2
20260905045512 24 359 0.0 3.2 0.00 0.00 0.00 91 1016.2
20260905045013 24 359 0.0 3.2 0.00 0.00 0.00 91 1016.2
20260905044535 24 359 0.0 1.6 0.00 0.00 0.00 91 1016.2
20260905044016 25 359 0.0 0.0 0.00 0.00 0.00 92 1016.2
20260905043514 25 359 0.0 0.0 0.00 0.00 0.00 91 1016.2
20260905043031 25 359 0.0 3.2 0.00 0.00 0.00 91 1016.2
20260905042523 25 359 0.0 3.2 0.00 0.00 0.00 91 1016.3
20260905042016 25 359 0.0 3.2 0.00 0.00 0.00 91 1016.2
20260905041511 25 359 0.0 3.2 0.00 0.00 0.00 91 1016.3
20260905041009 25 359 0.0 3.2 0.00 0.00 0.00 91 1016.3
20260905040509 25 359 0.0 3.2 0.00 0.00 0.00 91 1016.4
20260905040019 25 359 0.0 1.6 0.00 0.00 0.00 91 1016.3
20260905035511 25 359 1.6 1.6 0.00 0.00 0.00 90 1016.4
20260905035012 25 359 0.0 0.0 0.00 0.00 0.00 90 1016.5
20260905034519 25 359 0.0 1.6 0.00 0.00 0.00 90 1016.4
20260905034018 25 359 0.0 1.6 0.00 0.00 0.00 90 1016.5
20260905033516 25 359 0.0 1.6 0.00 0.00 0.00 90 1016.4
20260905033028 25 359 1.6 3.2 0.00 0.00 0.00 88 1016.4
20260905032513 25 359 0.0 3.2 0.00 0.00 0.00 88 1016.4
20260905032015 25 359 0.0 0.0 0.00 0.00 0.00 88 1016.4
20260905031537 25 359 0.0 3.2 0.00 0.00 0.00 88 1016.4
20260905031015 25 359 0.0 3.2 0.00 0.00 0.00 88 1016.4
20260905030517 26 359 0.0 0.0 0.00 0.00 0.00 88 1016.4
20260905030016 26 359 0.0 0.0 0.00 0.00 0.00 87 1016.5
20260905025511 26 359 0.0 0.0 0.00 0.00 0.00 87 1016.5
20260905025011 26 359 0.0 3.2 0.00 0.00 0.00 88 1016.4
20260905024519 26 359 0.0 3.2 0.00 0.00 0.00 88 1016.4
20260905024014 26 359 0.0 3.2 0.00 0.00 0.00 87 1016.4
20260905023518 26 359 0.0 3.2 0.00 0.00 0.00 87 1016.4
20260905023026 26 359 1.6 3.2 0.00 0.00 0.00 86 1016.4
20260905022513 26 359 0.0 3.2 0.00 0.00 0.00 86 1016.3
20260905022021 26 359 0.0 3.2 0.00 0.00 0.00 85 1016.3
20260905021542 26 359 0.0 1.6 0.00 0.00 0.00 85 1016.4
20260905021018 26 359 0.0 3.2 0.00 0.00 0.00 84 1016.3
20260905020520 27 359 1.6 3.2 0.00 0.00 0.00 84 1016.2
20260905020035 27 359 0.0 3.2 0.00 0.00 0.00 84 1016.1
20260905015520 27 359 0.0 3.2 0.00 0.00 0.00 83 1016.1
20260905015019 27 359 0.0 0.0 0.00 0.00 0.00 81 1016.0
20260905014516 27 359 0.0 3.2 0.00 0.00 0.00 81 1016.0
20260905014010 27 359 0.0 3.2 0.00 0.00 0.00 80 1016.0
20260905013511 27 359 0.0 3.2 0.00 0.00 0.00 81 1015.9
20260905013023 27 359 0.0 3.2 0.00 0.00 0.00 80 1016.0
20260905012513 27 359 0.0 3.2 0.00 0.00 0.00 80 1015.9
20260905012015 28 359 1.6 3.2 0.00 0.00 0.00 79 1015.9
20260905011505 28 52 0.0 3.2 0.00 0.00 0.00 79 1015.8
20260905011007 28 52 0.0 3.2 0.00 0.00 0.00 79 1015.7
20260905010503 28 52 0.0 3.2 0.00 0.00 0.00 78 1015.8
20260905010009 28 52 0.0 3.2 0.00 0.00 0.00 78 1015.8
20260905005510 28 52 0.0 3.2 0.00 0.00 0.00 77 1015.8
20260905005007 29 52 1.6 3.2 0.00 0.00 0.00 76 1015.8
20260905004513 29 52 0.0 3.2 0.00 0.00 0.00 75 1015.8